Skip Page Navigation
NASA JPL Caltech
NASA Logo - Jet Propulsion Laboratory + View the NASA Portal
+ Near-Earth Object (NEO) Program
Search JPL
JPL Home Earth Solar System Stars & Galaxies Technology
JPL Solar System Dynamics
BODIES ORBITS EPHEMERIDES TOOLS PHYSICAL DATA DISCOVERY FAQ SITE MAP
JPL Small-Body Database Browser
Search: [ help ]  
23158 Bouligny (2000 DN99)
Classification: Main-belt Asteroid          SPK-ID: 2023158
Ephemeris | Orbit Diagram | Orbital Elements | Physical Parameters | Discovery Circumstances ]

[ show orbit diagram ]
Orbital Elements at Epoch 2456400.5 (2013-Apr-18.0) TDB
Reference: MPO229214 (heliocentric ecliptic J2000)
 Element Value Uncertainty (1-sigma)   Units 
e 0.1304973 n/a  
a 2.4745861 n/a AU
q 2.1516593 n/a AU
i 6.57140 n/a deg
node 102.06329 n/a deg
peri 281.01465 n/a deg
M 256.65446 n/a deg
tp 2456808.6704116
(2014-May-31.17041160)
n/a JED
period 1421.8450857
3.89
n/a
n/a
d
yr
n 0.25319214 n/a deg/d
Q 2.7975129 n/a AU
  Orbit Determination Parameters
   # obs. used (total)      685  
   first obs. used      1996-??-??  
   last obs. used      2012-04-30  
   # oppositions      11  
   planetary ephem.      DE403  
   condition code      1  
   fit RMS      0.57  
   data source      MPC:mpn  
   producer      MPCLINUX  

Additional Information
 T_jup = 3.461 

Ephemeris | Orbit Diagram | Orbital Elements | Physical Parameters | Discovery Circumstances ]

Physical Parameter Table
Parameter Symbol Value Units Sigma Reference Notes
absolute magnitude H 14.2 mag n/a PDS3 (MPO 10228)  

23158 Bouligny           Discovered 2000 Feb. 29 by the Lincoln Laboratory Near-Earth Asteroid Research Team in Socorro.
Ian Michael Bouligny (b. 1990) was awarded second place in the 2007 Intel International Science and Engineering Fair for his electrical and mechanical engineering project. He attends the Catholic High School, New Iberia, Louisiana, U.S.A.
NOTE: some special characters may not display properly (any characters within {} are an attempt to place the proper accent above a character)
Reference: 20070828/MPCPages.arcLast Updated: 2007-08-30

Alternate Designations
 2000 DN99 = 1997 JF18 = 1997 LD14 
Ephemeris | Orbit Diagram | Orbital Elements | Physical Parameters | Discovery Circumstances ]
ABOUT SSD CREDITS/AWARDS PRIVACY/COPYRIGHT GLOSSARY LINKS
FirstGov 2013-May-22 23:53 UT
(server date/time)  
NASA Home Page
Site Manager:   Donald K. Yeomans
Webmaster  Alan B. Chamberlin